Regional Weather Roundup
Issued by NWS

Home | Current Version | Previous Version | Graphics & Text | Print | Product List | Glossary On
Versions: 1 2 3 4 5 6 7 8 9 10 11 12 13 14 15 16 17 18 19 20 21 22 23 24 25 26 27 28 29 30 31 32 33 34 35 36 37 38 39 40 41 42 43 44 45 46 47 48 49 50
000
ASUS43 KFSD 252210
RWRSD

WEATHER ROUNDUP FOR SOUTH DAKOTA
NATIONAL WEATHER SERVICE SIOUX FALLS SD
500 PM CDT SAT APR 25 2015

NOTE: "FAIR" INDICATES FEW OR NO CLOUDS BELOW 12,000 FEET WITH NO
SIGNIFICANT WEATHER AND/OR OBSTRUCTIONS TO VISIBILITY.


SDZ001>005-009-010-012>017-252300-
NORTHWEST AND NORTH CENTRAL SOUTH DAKOTA

CITY           SKY/WX    TMP DP  RH WIND       PRES   REMARKS
BUFFALO          N/A     49  44  83 SE10      29.69R
FAITH            N/A     49  44  83 E12       29.75R
MOBRIDGE       CLOUDY    53  45  74 SE10      29.78S
$$

SDZ012>016-024>037-041>051-057-063-072>074-252300-
SOUTHWEST AND SOUTH CENTRAL SOUTH DAKOTA

CITY           SKY/WX    TMP DP  RH WIND       PRES   REMARKS
RAPID CTY ARPT CLOUDY    51  46  83 S10       29.73R
PIERRE         CLOUDY    58  49  72 E10       29.76S
CUSTER         LGT RAIN  47  41  80 SW6G17    29.77R
ELLSWORTH AFB  CLOUDY    51  48  89 S10       29.72R
PHILIP         CLOUDY    55  48  77 SE9       29.74S
PINE RIDGE     MOSUNNY   66  46  48 E13       29.67F
SPEARFISH      TSTM      48  48 100 NW18G25   29.73R
WINNER         CLOUDY    61  47  59 E15       29.76R
$$

SDZ004>011-016>023-039-040-252300-
NORTHEAST SOUTH DAKOTA

CITY           SKY/WX    TMP DP  RH WIND       PRES   REMARKS
ABERDEEN       CLOUDY    52  42  69 E12       29.85R
WATERTOWN      MOSUNNY   55  41  59 E13       29.83S
BROOKINGS      CLOUDY    55  43  62 SE6       29.82S
SISSETON         N/A     53  43  68 SE8       29.87R
$$

SDZ017-020-022-023-036>040-048>070-252300-
SOUTHEAST SOUTH DAKOTA

CITY           SKY/WX    TMP DP  RH WIND       PRES   REMARKS
SIOUX FALLS    PTSUNNY   61  42  49 E15       29.78R
HURON          CLOUDY    60  44  55 SE13      29.79R
CHAMBERLAIN    CLOUDY    57  46  67 SE12      29.79R
MITCHELL       PTSUNNY   60  47  61 E14       29.79R
YANKTON        MOSUNNY   61  41  48 E14G20    29.76S
$$

ABBREVIATIONS USED IN REMARKS
   TC - TEMPERATURE IN CELSIUS
  WCI - WIND CHILL INDEX
   HX - HEAT INDEX
  VSB - VISIBILITY




USA.gov is the U.S. government's official web portal to all federal, state and local government web resources and services.